Change the Weather History Date:

Saturday, November 23, 2013

  Actual Average Record
Temperature  
Mean Temperature 38 °F -  
Max Temperature 44 °F 44 °F 53 °F (1999)
Min Temperature 33 °F 34 °F 21 °F (2003)
Degree Days  
Heating Degree Days 26    
Moisture  
Dew Point 35 °F    
Average Humidity 79    
Maximum Humidity 93    
Minimum Humidity 71    
Precipitation  
Precipitation 0.00 in - - ()
Sea Level Pressure  
Sea Level Pressure 30.30 in    
Wind  
Wind Speed 5 mph ()    
Max Wind Speed 10 mph    
Max Gust Speed -    
Visibility 6.2 miles    
Events      
Averages and records for this station are not official NWS values.
T = Trace of Precipitation, MM = Missing Value Source: Averaged Metar Reports

Daily Weather History Graph

Daily Weather History Graph

Search for Another Location

Airport or City:

Trip Planner

Search our weather history database for the weather conditions in past years. The results will help you decide how hot, cold, wet, or windy it might be!

Date:

Astronomy

Nov. 23, 2013 Rise Set
Actual Time 7:50 AM GMT 3:53 PM GMT
Civil Twilight 7:08 AM GMT 4:34 PM GMT
Nautical Twilight 6:24 AM GMT 5:19 PM GMT
Astronomical Twilight 5:41 AM GMT 6:02 PM GMT
Moon 9:27 PM GMT (11/23) 11:42 AM GMT (11/23)
Length of Visible Light 9h 25m
Length of Day
8h 02m
Waning Gibbous, 71% of the Moon is Illuminated
Nov 23
Waning Gibbous
Nov 25
Last Quarter
Dec 3
New
Dec 9
First Quarter
Dec 17
Full

Hourly Weather History & Observations

Time (GMT) Temp. Windchill Dew Point Humidity Pressure Visibility Wind Dir Wind Speed Gust Speed Precip Events Conditions
5:50 AM 33.8 °F 30.8 °F 32.0 °F 93% 30.24 in 6.2 mi Variable 3.5 mph - N/A   Scattered Clouds
6:20 AM 33.8 °F - 32.0 °F 93% 30.24 in 6.2 mi Variable 2.3 mph - N/A   Scattered Clouds
6:50 AM 33.8 °F 30.8 °F 32.0 °F 93% 30.27 in 6.2 mi Variable 3.5 mph - N/A   Scattered Clouds
7:20 AM 35.6 °F 31.7 °F 32.0 °F 87% 30.27 in 6.2 mi WSW 4.6 mph - N/A   Scattered Clouds
7:50 AM 35.6 °F 30.7 °F 32.0 °F 87% 30.27 in 6.2 mi West 5.8 mph - N/A   Scattered Clouds
8:20 AM 33.8 °F - 32.0 °F 93% 30.27 in 6.2 mi Variable 2.3 mph - N/A   Scattered Clouds
8:50 AM 39.2 °F 35.9 °F 33.8 °F 81% 30.30 in 6.2 mi West 4.6 mph - N/A   Scattered Clouds
9:20 AM 41.0 °F 37.1 °F 33.8 °F 76% 30.30 in 6.2 mi West 5.8 mph - N/A   Scattered Clouds
9:50 AM 41.0 °F 36.4 °F 35.6 °F 81% 30.30 in 6.2 mi West 6.9 mph - N/A   Scattered Clouds
10:20 AM 42.8 °F 39.3 °F 35.6 °F 76% 30.30 in 6.2 mi WNW 5.8 mph - N/A   Scattered Clouds
10:50 AM 42.8 °F 38.0 °F 35.6 °F 76% 30.30 in 6.2 mi WNW 8.1 mph - N/A   Scattered Clouds
11:20 AM 42.8 °F 37.0 °F 35.6 °F 76% 30.30 in 6.2 mi NW 10.4 mph - N/A   Scattered Clouds
11:50 AM 42.8 °F 37.5 °F 35.6 °F 76% 30.30 in 6.2 mi NW 9.2 mph - N/A   Scattered Clouds
12:20 PM 44.6 °F 40.2 °F 35.6 °F 71% 30.30 in 6.2 mi WNW 8.1 mph - N/A   Scattered Clouds
12:50 PM 44.6 °F 39.7 °F 37.4 °F 76% 30.30 in 6.2 mi WNW 9.2 mph - N/A   Scattered Clouds
1:20 PM 44.6 °F 40.7 °F 37.4 °F 76% 30.30 in 6.2 mi NW 6.9 mph - N/A   Scattered Clouds
1:50 PM 44.6 °F 40.7 °F 35.6 °F 71% 30.30 in 6.2 mi NW 6.9 mph - N/A   Scattered Clouds
2:20 PM 44.6 °F 41.4 °F 35.6 °F 71% 30.30 in 6.2 mi WNW 5.8 mph - N/A   Scattered Clouds
2:50 PM 44.6 °F 41.4 °F 37.4 °F 76% 30.30 in 6.2 mi NW 5.8 mph - N/A   Scattered Clouds
3:20 PM 44.6 °F 40.7 °F 35.6 °F 71% 30.30 in 6.2 mi NW 6.9 mph - N/A   Mostly Cloudy
3:50 PM 44.6 °F 41.4 °F 35.6 °F 71% 30.30 in 6.2 mi WNW 5.8 mph - N/A   Mostly Cloudy
4:20 PM 42.8 °F 38.6 °F 35.6 °F 76% 30.30 in 6.2 mi WNW 6.9 mph - N/A   Scattered Clouds
4:50 PM 42.8 °F 38.6 °F 35.6 °F 76% 30.33 in 6.2 mi WNW 6.9 mph - N/A   Scattered Clouds
5:20 PM 42.8 °F - 35.6 °F 76% 30.33 in 6.2 mi Variable 2.3 mph - N/A   Mostly Cloudy
5:50 PM 42.8 °F 39.3 °F 35.6 °F 76% 30.33 in 6.2 mi WNW 5.8 mph - N/A   Mostly Cloudy
6:20 PM 42.8 °F 37.0 °F 35.6 °F 76% 30.33 in 6.2 mi NW 10.4 mph - N/A   Partly Cloudy
6:50 PM 42.8 °F 37.5 °F 35.6 °F 76% 30.33 in 6.2 mi NW 9.2 mph - N/A   Mostly Cloudy
7:20 PM 42.8 °F 37.0 °F 37.4 °F 81% 30.33 in 6.2 mi NNW 10.4 mph - N/A   Mostly Cloudy
7:50 PM 42.8 °F 37.0 °F 37.4 °F 81% 30.33 in 6.2 mi NNW 10.4 mph - N/A   Mostly Cloudy
8:20 PM 42.8 °F 38.0 °F 35.6 °F 76% 30.33 in 6.2 mi NW 8.1 mph - N/A   Overcast
8:50 PM 42.8 °F 38.0 °F 37.4 °F 81% 30.36 in 6.2 mi NW 8.1 mph - N/A   Overcast
9:20 PM 42.8 °F 38.0 °F 35.6 °F 76% 30.36 in 6.2 mi NW 8.1 mph - N/A   Mostly Cloudy